FW1036 Weather Reports


Display with metric or nautical units.
time (UTC)temp
F
wind
direction
speed
MPH
gust
MPH
rain 1hr
in
rain 24hr
in
rain mn
in
humidity
%
barometer
mb
20260901133004 73 294 0.0 3.0 0.00 0.33 0.00 93 1012.5
20260901131600 72 247 0.0 2.0 0.00 0.33 0.00 93 1012.6
20260901130057 71 221 0.0 1.0 0.00 0.33 0.00 94 1012.4
20260901124556 71 221 0.0 3.0 0.00 0.33 0.00 94 1012.5
20260901123053 70 232 0.0 3.0 0.00 0.33 0.00 94 1012.5
20260901121549 69 232 1.0 3.0 0.00 0.33 0.00 94 1012.3
20260901120050 68 223 1.0 3.0 0.00 0.33 0.00 94 1012.3
20260901114544 68 247 0.0 2.0 0.00 0.36 0.00 94 1012.0
20260901113042 68 247 0.0 0.0 0.00 0.36 0.00 94 1011.9
20260901111539 67 247 0.0 0.0 0.00 0.36 0.00 93 1011.7
20260901110038 67 247 0.0 0.0 0.00 0.36 0.00 93 1011.5
20260901104541 67 253 0.0 1.0 0.00 0.49 0.00 93 1011.5
20260901103036 67 253 0.0 0.0 0.00 0.49 0.00 93 1011.2
20260901101546 67 253 0.0 1.0 0.00 0.49 0.00 93 1011.2
20260901100036 67 253 0.0 0.0 0.00 0.49 0.00 93 1011.2
20260901094539 67 253 0.0 0.0 0.00 0.52 0.00 93 1011.2
20260901093034 67 253 0.0 1.0 0.00 0.52 0.00 93 1011.2
20260901091534 67 253 0.0 0.0 0.00 0.52 0.00 93 1011.1
20260901090033 67 253 0.0 0.0 0.00 0.52 0.00 93 1011.1
20260901084532 67 253 0.0 0.0 0.00 0.52 0.00 92 1011.2
20260901083033 67 253 0.0 0.0 0.00 0.52 0.00 92 1010.9
20260901081532 67 253 0.0 0.0 0.00 0.52 0.00 92 1010.9
20260901080032 67 253 0.0 0.0 0.00 0.52 0.00 92 1010.8
20260901074542 67 253 0.0 0.0 0.00 0.52 0.00 92 1010.8
20260901073027 67 253 0.0 0.0 0.00 0.52 0.00 92 1010.9
20260901071527 67 253 0.0 2.0 0.00 0.52 0.00 92 1011.0
20260901070025 68 253 0.0 2.0 0.00 0.52 0.00 92 1011.0
20260901064524 68 252 0.0 0.0 0.00 0.52 0.00 91 1010.9
20260901063023 68 252 0.0 1.0 0.00 0.52 0.00 91 1010.9
20260901061521 68 219 1.0 3.0 0.00 0.52 0.00 91 1010.9
20260901060119 68 234 0.0 2.0 0.00 0.52 0.00 91 1011.1
20260901054519 68 260 0.0 3.0 0.00 0.53 0.00 91 1011.2
20260901053017 68 242 1.0 3.0 0.00 0.53 0.00 91 1011.3
20260901051527 68 215 1.0 4.0 0.00 0.53 0.00 91 1011.4
20260901050013 69 229 1.0 4.0 0.00 0.53 0.00 91 1011.3
20260901044511 68 219 1.0 3.0 0.00 0.53 0.00 90 1011.4
20260901043010 69 190 1.0 4.0 0.00 0.53 0.00 91 1011.4
20260901041513 69 217 0.0 2.0 0.00 0.53 0.00 90 1011.5
20260901040006 69 211 0.0 2.0 0.00 0.53 0.53 90 1011.6
20260901034506 69 253 0.0 3.0 0.00 0.53 0.53 90 1011.7
20260901033008 69 239 0.0 3.0 0.00 0.53 0.53 90 1011.4
20260901031505 69 232 1.0 4.0 0.00 0.53 0.53 90 1011.5
20260901030005 69 219 2.0 6.0 0.00 0.53 0.53 90 1011.6
20260901024505 69 182 3.0 6.0 0.00 0.53 0.53 90 1011.8
20260901023004 69 244 2.0 5.0 0.00 0.53 0.53 90 1011.8
20260901021503 69 215 2.0 6.0 0.00 0.53 0.53 90 1011.8
20260901020004 70 235 1.0 5.0 0.00 0.53 0.53 89 1011.8
20260901014504 70 217 1.0 3.0 0.00 0.53 0.53 89 1011.6
20260901013003 71 227 1.0 4.0 0.00 0.53 0.53 88 1011.6
20260901011500 71 165 1.0 3.0 0.00 0.53 0.53 87 1011.5
20260901010100 71 217 2.0 4.0 0.00 0.53 0.53 86 1011.4
20260901004600 72 209 1.0 5.0 0.00 0.53 0.53 86 1011.1
20260901003059 72 215 2.0 7.0 0.00 0.53 0.53 86 1011.0
20260901001605 72 186 2.0 8.0 0.00 0.53 0.53 86 1010.9
20260901000107 72 167 4.0 9.0 0.00 0.53 0.53 85 1010.9
20260831234618 73 192 5.0 11.0 0.00 0.53 0.53 84 1011.0
20260831233117 73 161 4.0 11.0 0.00 0.53 0.53 84 1011.2
20260831231554 74 161 6.0 12.0 0.00 0.53 0.53 83 1011.5
20260831230053 74 151 5.0 10.0 0.00 0.53 0.53 81 1011.7
20260831224550 74 167 5.0 12.0 0.00 0.53 0.53 80 1011.7
20260831223050 74 189 3.0 8.0 0.00 0.53 0.53 80 1012.2
20260831221546 74 199 2.0 6.0 0.00 0.53 0.53 84 1012.3
20260831220044 74 163 3.0 8.0 0.00 0.53 0.53 84 1012.3
20260831214543 73 140 3.0 8.0 0.00 0.55 0.53 85 1012.4
20260831213040 73 163 4.0 9.0 0.00 0.55 0.53 86 1012.4
20260831211539 72 159 5.0 7.0 0.00 0.55 0.53 85 1012.4
20260831210043 71 131 2.0 6.0 0.00 0.55 0.53 87 1012.6
20260831204538 71 10 6.0 9.0 0.00 0.66 0.53 86 1012.8
20260831203038 71 107 1.0 3.0 0.00 0.66 0.53 86 1012.4
20260831201545 71 109 1.0 2.0 0.00 0.66 0.53 86 1012.7
20260831200037 71 159 1.0 5.0 0.00 0.66 0.53 87 1012.4
20260831194536 70 159 1.0 6.0 0.01 0.66 0.53 89 1012.4
20260831193035 69 139 2.0 9.0 0.01 0.66 0.53 90 1012.0
20260831191532 69 168 2.0 11.0 0.01 0.66 0.53 90 1012.5
20260831190032 70 188 5.0 10.0 0.00 0.65 0.52 91 1012.7
20260831184529 71 184 3.0 10.0 0.00 0.65 0.52 91 1012.9
20260831183031 71 193 2.0 10.0 0.03 0.65 0.52 92 1013.3
20260831181526 71 189 3.0 6.0 0.05 0.65 0.52 92 1013.7
20260831180026 71 138 0.0 3.0 0.05 0.65 0.52 92 1014.4
20260831174525 71 203 0.0 2.0 0.05 0.65 0.52 92 1014.9
20260831173024 71 295 0.0 2.0 0.02 0.62 0.49 91 1015.3
20260831171526 72 290 1.0 3.0 0.00 0.60 0.47 91 1015.6
20260831170029 72 232 1.0 5.0 0.01 0.60 0.47 91 1015.2
20260831164522 72 244 1.0 4.0 0.03 0.62 0.47 93 1015.2
20260831163018 70 167 0.0 2.0 0.03 0.62 0.47 93 1015.1
20260831161517 69 200 0.0 0.0 0.03 0.62 0.47 93 1015.0
20260831160013 69 253 0.0 1.0 0.09 0.64 0.46 93 1015.0
20260831154510 69 253 0.0 3.0 0.23 0.62 0.44 93 1015.4
20260831153008 69 278 1.0 7.0 0.23 0.62 0.44 93 1015.8
20260831151515 68 306 1.0 9.0 0.24 0.62 0.44 93 1015.5
20260831150007 68 279 5.0 13.0 0.16 0.56 0.36 93 1015.7
20260831144504 69 253 1.0 4.0 0.01 0.42 0.21 93 1015.4
20260831143117 69 223 0.0 0.0 0.01 0.42 0.21 93 1014.7
20260831141607 69 223 0.0 0.0 0.00 0.41 0.20 93 1014.5
20260831140100 69 223 0.0 0.0 0.00 0.41 0.20 93 1014.5
20260831134601 69 223 0.0 0.0 0.00 0.43 0.20 93 1014.2